P/2018 L1 ( PanSTARRS )

Japanese version
Home page
Updated on June 18, 2018

---------------------------------------------------------------------

* Profile

Discovery Date June 3, 2018
Magnitude 20.0 mag
Discoverer Pan-STARRS 1 telescope (Haleakala)

* Orbital Elements

Epoch 2018 Nov. 18.0 TT = JDT 2458440.5
T 2018 Nov. 12.56594 TT                                 MPCW
q   1.8854738            (2000.0)            P               Q
n   0.14209546     Peri.   17.86403     +0.27946339     +0.94243042
a   3.6370497      Node   268.67580     -0.90182240     +0.19198790
e   0.4815925      Incl.   10.58494     -0.32957027     +0.27379838
P   6.94
From 36 observations 2018 May 18-June 7, mean residual 0".4.

* Magnitudes Graph

        m1 = 14.0 + 5 log d + 10.0 log r

---------------------------------------------------------------------

The orbital elements are published on M.P.E.C. 2018-L36.
The magnitudes graphs are made with Comet for Windows.

---------------------------------------------------------------------

Copyright(C) Seiichi Yoshida (comet@aerith.net). All rights reserved.